Location: Newark
(45.4422°N, 16.2769°E)
Time: 22:30:22
(UTC+00:00)

Explorer 7 - Pass Details

Date: 26 January 2021
Orbit: 484 x 677 km, 50.3° (Epoch: 07 March)

Event Time Altitude Azimuth Distance (km) Brightness Sun altitude
Exits shadow 03:07:20 14° 69° (ENE) 1,508 9.7 -34.1°
Drops below altitude 10° 03:07:56 10° 68° (ENE) 1,746 10.1 -34.0°
Sets 03:10:13 0° 65° (ENE) 2,665 11.3 -33.6°
